AXE523 EGJB-EGTE

Flight info

Callsign AXE523
Flight time 0h 24m
Altitude 10000
Route SKERY L22 EMWIP P16 FIMCA N22 BHD N864 DAWLY
Aircraft B738/M-SDE2E3FGHIRWXY/LB1

Departure

Time 2026-04-26 10:32
Airport Guernsey Airport (EGJB)

Arrival

Time 2026-04-26 10:56
Airport Exeter International Airport (EGTE)
Time Latitude Longitude Altitude Speed Heading
2026-04-26 10:04 49.43259 -2.59685 326 ft 0 kts 177°
2026-04-26 10:26 49.43261 -2.59685 327 ft 3 kts 178°
2026-04-26 10:26 49.43287 -2.59685 327 ft 4 kts 184°
2026-04-26 10:26 49.43313 -2.59678 326 ft 4 kts 205°
2026-04-26 10:26 49.43330 -2.59657 323 ft 3 kts 264°
2026-04-26 10:27 49.43331 -2.59651 326 ft 1 kts 269°
2026-04-26 10:29 49.43331 -2.59655 323 ft 2 kts 271°
2026-04-26 10:29 49.43343 -2.59709 325 ft 9 kts 289°
2026-04-26 10:29 49.43344 -2.59855 323 ft 18 kts 268°
2026-04-26 10:30 49.43338 -2.60088 307 ft 26 kts 267°
2026-04-26 10:30 49.43329 -2.60394 292 ft 30 kts 268°
2026-04-26 10:30 49.43338 -2.60697 297 ft 28 kts 280°
2026-04-26 10:30 49.43364 -2.60980 309 ft 26 kts 269°
2026-04-26 10:31 49.43359 -2.61158 311 ft 14 kts 268°
2026-04-26 10:31 49.43385 -2.61293 314 ft 14 kts 309°
2026-04-26 10:31 49.43457 -2.61352 315 ft 8 kts 21°
2026-04-26 10:31 49.43468 -2.61295 314 ft 8 kts 88°
2026-04-26 10:32 49.43478 -2.60861 309 ft 90 kts 88°
2026-04-26 10:32 49.43518 -2.59435 456 ft 164 kts 88°
2026-04-26 10:32 49.43548 -2.57697 1696 ft 164 kts 89°
2026-04-26 10:32 49.43576 -2.55917 2946 ft 171 kts 89°
2026-04-26 10:33 49.43606 -2.53904 3642 ft 209 kts 88°
2026-04-26 10:33 49.43727 -2.51512 3960 ft 238 kts 75°
2026-04-26 10:33 49.44527 -2.49130 4381 ft 262 kts 50°
2026-04-26 10:33 49.46026 -2.47516 5349 ft 267 kts 18°
2026-04-26 10:34 49.47860 -2.47260 6523 ft 267 kts 350°
2026-04-26 10:34 49.49571 -2.48378 7512 ft 274 kts 322°
2026-04-26 10:34 49.50796 -2.50605 8433 ft 282 kts 299°
2026-04-26 10:34 49.51633 -2.53352 9472 ft 285 kts 291°
2026-04-26 10:35 49.52366 -2.56222 10350 ft 290 kts 290°
2026-04-26 10:35 49.53110 -2.59205 10916 ft 311 kts 290°
2026-04-26 10:35 49.53936 -2.62463 11139 ft 341 kts 290°
2026-04-26 10:35 49.54848 -2.65982 11462 ft 364 kts 291°
2026-04-26 10:36 49.55812 -2.69637 12249 ft 370 kts 290°
2026-04-26 10:36 49.56791 -2.73316 13157 ft 373 kts 290°
2026-04-26 10:36 49.57784 -2.77043 13888 ft 377 kts 290°
2026-04-26 10:36 49.58781 -2.80783 14202 ft 378 kts 291°
2026-04-26 10:37 49.60091 -2.84316 14247 ft 382 kts 306°
2026-04-26 10:37 49.61995 -2.87194 14261 ft 386 kts 321°
2026-04-26 10:37 49.64313 -2.89319 14260 ft 389 kts 330°
2026-04-26 10:37 49.66734 -2.91187 14262 ft 389 kts 332°
2026-04-26 10:38 49.69167 -2.93031 14256 ft 390 kts 332°
2026-04-26 10:38 49.71598 -2.94884 14260 ft 390 kts 331°
2026-04-26 10:38 49.74023 -2.96754 14255 ft 390 kts 331°
2026-04-26 10:38 49.76444 -2.98640 14259 ft 389 kts 331°
2026-04-26 10:39 49.78861 -3.00538 14257 ft 389 kts 331°
2026-04-26 10:39 49.81275 -3.02441 14258 ft 389 kts 331°
2026-04-26 10:39 49.83690 -3.04350 14257 ft 389 kts 331°
2026-04-26 10:39 49.86099 -3.06256 14262 ft 389 kts 330°
2026-04-26 10:40 49.88507 -3.08165 14260 ft 389 kts 330°
2026-04-26 10:40 49.90882 -3.10048 14264 ft 389 kts 331°
2026-04-26 10:40 49.93287 -3.11957 14267 ft 389 kts 331°
2026-04-26 10:40 49.95697 -3.13872 14266 ft 389 kts 331°
2026-04-26 10:41 49.98045 -3.15878 14255 ft 381 kts 324°
2026-04-26 10:41 50.00033 -3.18457 14260 ft 364 kts 312°
2026-04-26 10:41 50.01603 -3.21416 14253 ft 345 kts 300°
2026-04-26 10:41 50.02794 -3.24554 14266 ft 330 kts 297°
2026-04-26 10:42 50.03914 -3.27591 14243 ft 317 kts 297°
2026-04-26 10:42 50.04662 -3.29506 14254 ft 308 kts 302°
2026-04-26 10:42 50.06609 -3.32611 14262 ft 294 kts 320°
2026-04-26 10:42 50.08319 -3.34252 14269 ft 282 kts 329°
2026-04-26 10:43 50.10011 -3.35604 14251 ft 271 kts 330°
2026-04-26 10:43 50.11667 -3.36902 14262 ft 264 kts 329°
2026-04-26 10:43 50.13309 -3.38204 14268 ft 260 kts 329°
2026-04-26 10:43 50.14904 -3.39482 14285 ft 262 kts 329°
2026-04-26 10:44 50.16524 -3.40781 14280 ft 262 kts 329°
2026-04-26 10:44 50.18148 -3.42083 14283 ft 262 kts 329°
2026-04-26 10:44 50.19775 -3.43389 14284 ft 263 kts 329°
2026-04-26 10:44 50.21401 -3.44694 14285 ft 263 kts 329°
2026-04-26 10:45 50.23035 -3.46006 14283 ft 264 kts 329°
2026-04-26 10:45 50.24671 -3.47320 14247 ft 266 kts 329°
2026-04-26 10:45 50.25772 -3.48206 14036 ft 272 kts 329°
2026-04-26 10:45 50.27473 -3.49543 13717 ft 274 kts 335°
2026-04-26 10:46 50.29359 -3.50029 13389 ft 278 kts
2026-04-26 10:46 50.31290 -3.49889 13098 ft 278 kts
2026-04-26 10:46 50.33218 -3.49760 12782 ft 277 kts
2026-04-26 10:46 50.35153 -3.49648 12392 ft 280 kts
2026-04-26 10:47 50.37112 -3.49545 11942 ft 282 kts
2026-04-26 10:47 50.39077 -3.49444 11497 ft 283 kts
2026-04-26 10:47 50.41043 -3.49270 11043 ft 283 kts
2026-04-26 10:47 50.43001 -3.48923 10618 ft 283 kts
2026-04-26 10:48 50.44954 -3.48555 10183 ft 282 kts
2026-04-26 10:48 50.46896 -3.48202 9734 ft 278 kts
2026-04-26 10:48 50.48786 -3.47868 9282 ft 268 kts
2026-04-26 10:48 50.50615 -3.47548 8808 ft 261 kts
2026-04-26 10:49 50.52369 -3.47249 8562 ft 244 kts
2026-04-26 10:49 50.53998 -3.47204 8110 ft 235 kts 347°
2026-04-26 10:49 50.55425 -3.48348 7533 ft 231 kts 315°
2026-04-26 10:49 50.56375 -3.50354 6987 ft 229 kts 301°
2026-04-26 10:50 50.57210 -3.52483 6413 ft 227 kts 300°
2026-04-26 10:50 50.58028 -3.54612 5807 ft 227 kts 300°
2026-04-26 10:50 50.58835 -3.56744 5280 ft 226 kts 300°
2026-04-26 10:50 50.59637 -3.58865 4670 ft 227 kts 299°
2026-04-26 10:51 50.60460 -3.61007 4042 ft 228 kts 303°
2026-04-26 10:51 50.63140 -3.63360 2997 ft 227 kts 352°
2026-04-26 10:51 50.64704 -3.63846 2935 ft 228 kts 350°
2026-04-26 10:52 50.66259 -3.64372 2996 ft 229 kts 349°
2026-04-26 10:52 50.67815 -3.64849 2903 ft 224 kts 360°
2026-04-26 10:52 50.69183 -3.64225 2855 ft 195 kts 44°
2026-04-26 10:52 50.69902 -3.62558 2687 ft 178 kts 71°
2026-04-26 10:53 50.70340 -3.60757 2462 ft 174 kts 75°
2026-04-26 10:53 50.70690 -3.58945 2218 ft 171 kts 79°
2026-04-26 10:53 50.70976 -3.57171 2012 ft 160 kts 80°
2026-04-26 10:54 50.71480 -3.53893 1573 ft 148 kts 79°
2026-04-26 10:54 50.71722 -3.52343 1356 ft 145 kts 80°
2026-04-26 10:54 50.71956 -3.50820 1223 ft 144 kts 80°
2026-04-26 10:54 50.72193 -3.49251 1014 ft 151 kts 79°
2026-04-26 10:55 50.72449 -3.47662 750 ft 151 kts 80°
2026-04-26 10:55 50.72699 -3.46072 578 ft 151 kts 80°
2026-04-26 10:55 50.72951 -3.44430 374 ft 157 kts 81°
2026-04-26 10:55 50.73212 -3.42789 154 ft 151 kts 82°
2026-04-26 10:56 50.73445 -3.41288 106 ft 121 kts 76°
2026-04-26 10:56 50.73594 -3.40334 109 ft 58 kts 76°
2026-04-26 10:56 50.73624 -3.40010 108 ft 16 kts 106°
2026-04-26 10:56 50.73652 -3.39987 108 ft 7 kts 268°
2026-04-26 10:57 50.73638 -3.40072 106 ft 11 kts 254°
2026-04-26 10:57 50.73605 -3.40267 109 ft 27 kts 255°
2026-04-26 10:57 50.73542 -3.40652 111 ft 45 kts 256°
2026-04-26 10:57 50.73456 -3.41215 107 ft 58 kts 256°
2026-04-26 10:58 50.73361 -3.41826 105 ft 55 kts 256°
2026-04-26 10:58 50.73301 -3.42204 111 ft 19 kts 255°
2026-04-26 10:58 50.73211 -3.42242 110 ft 15 kts 165°
2026-04-26 10:58 50.73112 -3.42204 109 ft 13 kts 166°
2026-04-26 10:59 50.73086 -3.42096 108 ft 12 kts 66°
2026-04-26 10:59 50.73122 -3.41981 106 ft 11 kts 65°
2026-04-26 10:59 50.73144 -3.41902 108 ft 7 kts 91°
2026-04-26 10:59 50.73118 -3.41849 110 ft 4 kts 129°
2026-04-26 11:00 50.73105 -3.41824 111 ft 0 kts 131°